Showing default

COSMOS 2143, 21299

Orbit data source: Space-Track

COSMOS 2143, 21299 is a payload satellite owned by UNKS RF (CIS) in LEO that was launched on Thu, 16 May 1991 UTC via a TSIKLON-3 launch vehicle from the Plesetsk Missile And Space Complex (PKMTR). Payload-class satellites include a variety of spacecraft equipped with specific instruments for various scientific and technological missions. These include communications satellites like Starlink; space stations such as the ISS; scientific satellites like the Hubble; Earth observation satellites from companies like Planet Labs, Umbra, and HawkEye 360; GPS; miniature CubeSats for education and research; and military/defense satellites.

Loading next visibility...
Identifier
21299, 1991-033A
Orbit
LEO
Country
Flag of CISCIS
Related business
Manufacturer
NPO PM
Mission
Defense Communications
Bus & Motor
STRELA-3, Unknown motor
Mass
225 kg wet, 225 kg dry
Launch date (UTC)
1991-05-16 (35 years ago)
Launch vehicle
TSIKLON-3
Launch site
Plesetsk Missile And Space Complex (PKMTR)
Object type
Payload
Rocket body
Debris
Shape & HBR
Cyl, 0.8 m
Radar Cross Section
1.257 m², Large (>1 m²)

Expand to show TLE details & history
Last TLE update: 2 days ago

TLE from 2 days ago
0 COSMOS 2143
1 21299U 91033A   26171.46754301  .00000036  00000-0  13980-3 0  9999
2 21299  82.5753 300.6555 0013573  49.7790  21.0789 12.63928984618985
Epoch: 2026-06-20T11:13Z
TLE epoch observation values (Epoch: 2026-06-20T11:13:15.716Z)
Latitude
69.64224°
Longitude
-115.88717°
Altitude
1,408.935 km
Speed
7.167 km/s
True Right ascension
21h 24m 26s
True Declination
69° 32' 21"
Sunlit
Object was in daylight at epoch
Visualization orbit readout
Latitude
Unknown
Longitude
Unknown
Altitude
Unknown
Speed
Unknown
Apparent Right ascension
Unknown
Apparent Declination
Unknown
Sunlit
N/A
Visualization observer readout
Local Sidereal Time
02:14:52
Azimuth
Unknown
Elevation
Unknown
Doppler factor
Unknown
Orbital elements
Apogee altitude
1,414.651 km
Perigee altitude
1,393.525 km
Semi-major axis
7,782.225 km
Eccentricity
0.00136
Inclination
82.5753°
RAAN
300.6555°
Arg. of periapsis
49.779°
True anomaly
21.13493°
Mean anomaly
21.0789°
Eccentric anomaly
21.1069°
Mean motion
3.16146 °/min
Orbital period
113.87 mins
BSTAR
0.0001398
Loading maneuver chart data...
Computing Atmospheric mass density...
Loading historical data...
Loading historical data...
Loading historical data...
Loading historical data...
Loading historical data...
Loading historical data...
Loading historical data...

Documentation

Showing up to 5 results
|